N8QQQ Weather Reports


time (UTC)temp
C
wind
direction
speed
KPH
gust
KPH
rain 1hr
cm
rain 24hr
cm
rain mn
cm
humidity
%
barometer
mb
20260906191315 23 2 0.0 0.0 0.00 0.00 0.00 67 1021.2
20260906190809 23 2 1.6 1.6 0.00 0.00 0.00 66 1021.2
20260906190309 23 1 0.0 0.0 0.00 0.00 0.00 65 1021.3
20260906185803 23 2 3.2 3.2 0.00 0.00 0.00 64 1021.3
20260906185306 23 9 0.0 0.0 0.00 0.00 0.00 66 1021.5
20260906184756 24 8 0.0 0.0 0.00 0.00 0.00 64 1021.5
20260906184251 25 298 0.0 0.0 0.00 0.00 0.00 62 1021.5
20260906183747 25 288 0.0 1.6 0.00 0.00 0.00 59 1021.4
20260906183244 25 346 0.0 0.0 0.00 0.00 0.00 58 1021.5
20260906182738 25 242 0.0 0.0 0.00 0.00 0.00 58 1021.6
20260906182234 25 150 3.2 3.2 0.00 0.00 0.00 59 1021.6
20260906181729 25 285 0.0 0.0 0.00 0.00 0.00 62 1021.9
20260906181225 25 199 1.6 3.2 0.00 0.00 0.00 61 1021.9
20260906180720 24 156 0.0 1.6 0.00 0.00 0.00 64 1021.9
20260906180215 23 174 1.6 1.6 0.00 0.00 0.00 65 1022.1
20260906175712 24 176 3.2 4.8 0.00 0.00 0.00 63 1021.9
20260906175208 23 147 1.6 3.2 0.00 0.00 0.00 62 1022.0
20260906174706 23 224 0.0 1.6 0.00 0.00 0.00 65 1021.9
20260906174201 23 13 0.0 0.0 0.00 0.00 0.00 67 1022.0
20260906173656 23 13 0.0 0.0 0.00 0.00 0.00 67 1022.1
20260906173152 22 12 0.0 0.0 0.00 0.00 0.00 71 1022.3
20260906172651 23 12 0.0 0.0 0.00 0.00 0.00 69 1022.3
20260906172147 22 320 1.6 1.6 0.00 0.00 0.00 68 1022.3
20260906171646 22 338 1.6 1.6 0.00 0.00 0.00 68 1022.0
20260906171142 22 332 0.0 0.0 0.00 0.00 0.00 70 1022.3
20260906170638 22 331 0.0 1.6 0.00 0.00 0.00 70 1022.3
20260906170137 22 311 0.0 1.6 0.00 0.00 0.00 70 1022.1
20260906165634 22 332 0.0 0.0 0.00 0.00 0.00 68 1022.3
20260906165129 22 269 1.6 1.6 0.00 0.00 0.00 68 1022.4
20260906164627 23 310 0.0 0.0 0.00 0.00 0.00 65 1022.3
20260906164123 23 293 0.0 0.0 0.00 0.00 0.00 66 1022.5
20260906163619 23 342 1.6 3.2 0.00 0.00 0.00 65 1022.4
20260906163115 23 283 1.6 1.6 0.00 0.00 0.00 64 1022.4
20260906162612 23 4 0.0 0.0 0.00 0.00 0.00 66 1022.4
20260906162107 23 313 1.6 3.2 0.00 0.00 0.00 66 1022.3
20260906161601 23 6 1.6 1.6 0.00 0.00 0.00 65 1022.3
20260906161100 23 307 0.0 0.0 0.00 0.00 0.00 67 1022.5
20260906160559 22 27 0.0 0.0 0.00 0.00 0.00 68 1022.6
20260906160058 22 22 1.6 1.6 0.00 0.00 0.00 69 1022.4
20260906155555 22 278 0.0 1.6 0.00 0.00 0.00 66 1022.4
20260906155052 22 303 0.0 1.6 0.00 0.00 0.00 68 1022.6
20260906154547 21 329 0.0 0.0 0.00 0.00 0.00 70 1022.5
20260906154046 21 344 3.2 3.2 0.00 0.00 0.00 70 1022.5
20260906153544 21 304 0.0 1.6 0.00 0.00 0.00 71 1022.6
20260906153040 21 303 0.0 1.6 0.00 0.00 0.00 70 1022.5
20260906152539 21 308 0.0 0.0 0.00 0.00 0.00 71 1023.0
20260906152038 20 338 0.0 0.0 0.00 0.00 0.00 72 1022.7
20260906151534 20 334 3.2 3.2 0.00 0.00 0.00 71 1022.7
20260906151030 20 274 0.0 0.0 0.00 0.00 0.00 72 1022.8
20260906150525 20 273 0.0 1.6 0.00 0.00 0.00 73 1023.0
20260906150020 20 342 0.0 0.0 0.00 0.00 0.00 73 1023.0
20260906145519 19 343 0.0 0.0 0.00 0.00 0.00 74 1023.1
20260906145014 19 342 1.6 1.6 0.00 0.00 0.00 73 1022.9
20260906144508 18 342 0.0 0.0 0.00 0.00 0.00 75 1022.8
20260906144003 18 342 0.0 0.0 0.00 0.00 0.00 80 1022.7
20260906143459 17 342 0.0 0.0 0.00 0.00 0.00 81 1022.9
20260906142955 17 342 0.0 1.6 0.00 0.00 0.00 83 1022.9
20260906142448 17 341 1.6 1.6 0.00 0.00 0.00 83 1023.0
20260906141944 16 50 0.0 0.0 0.00 0.00 0.00 88 1023.0
20260906141443 16 50 0.0 0.0 0.00 0.00 0.00 87 1023.0
20260906140939 15 50 0.0 0.0 0.00 0.00 0.00 92 1023.1
20260906140433 15 50 0.0 0.0 0.00 0.00 0.00 94 1023.1
20260906135931 15 50 0.0 0.0 0.00 0.00 0.00 99 1022.8
20260906135430 14 50 0.0 0.0 0.00 0.00 0.00 99 1022.9
20260906134926 13 50 0.0 0.0 0.00 0.00 0.00 99 1023.2
20260906134421 13 50 0.0 0.0 0.00 0.00 0.00 99 1023.1
20260906133916 13 50 0.0 0.0 0.00 0.00 0.00 99 1022.8
20260906133412 13 50 0.0 0.0 0.00 0.00 0.00 99 1022.9
20260906132907 12 50 0.0 0.0 0.00 0.00 0.00 99 1022.9
20260906132402 12 51 0.0 0.0 0.00 0.00 0.00 99 1022.8
20260906131858 11 51 0.0 0.0 0.00 0.00 0.00 99 1022.8
20260906131353 11 51 0.0 0.0 0.00 0.00 0.00 99 1022.7
20260906130849 10 51 0.0 0.0 0.00 0.00 0.00 99 1022.8
20260906130348 10 51 0.0 0.0 0.00 0.00 0.00 99 1022.6
20260906125848 10 51 0.0 0.0 0.00 0.00 0.00 99 1022.7
20260906125344 9 51 0.0 0.0 0.00 0.00 0.00 99 1022.6
20260906124839 8 51 0.0 0.0 0.00 0.00 0.00 99 1022.8
20260906124336 8 51 0.0 0.0 0.00 0.00 0.00 99 1022.7
20260906123834 8 51 0.0 0.0 0.00 0.00 0.00 99 1022.7
20260906123329 8 51 0.0 0.0 0.00 0.00 0.00 99 1022.7
20260906122829 8 51 0.0 0.0 0.00 0.00 0.00 99 1022.7
20260906122323 7 51 0.0 0.0 0.00 0.00 0.00 99 1022.6
20260906121816 7 51 0.0 0.0 0.00 0.00 0.00 99 1022.6
20260906121311 7 51 0.0 0.0 0.00 0.00 0.00 99 1022.7
20260906120807 7 51 0.0 0.0 0.00 0.00 0.00 99 1022.6
20260906120303 7 51 0.0 0.0 0.00 0.00 0.00 99 1022.6
20260906115759 7 51 0.0 0.0 0.00 0.00 0.00 99 1022.4
20260906115254 7 51 0.0 0.0 0.00 0.00 0.00 99 1022.6
20260906114753 7 51 0.0 0.0 0.00 0.00 0.00 99 1022.2
20260906114248 7 51 0.0 0.0 0.00 0.00 0.00 99 1022.4
20260906113744 7 51 0.0 0.0 0.00 0.00 0.00 99 1022.3
20260906113242 7 51 0.0 0.0 0.00 0.00 0.00 99 1022.3
20260906112737 7 51 0.0 0.0 0.00 0.00 0.00 99 1022.4
20260906112234 7 51 0.0 0.0 0.00 0.00 0.00 99 1022.3
20260906111733 7 51 0.0 0.0 0.00 0.00 0.00 99 1022.2
20260906111227 7 51 0.0 0.0 0.00 0.00 0.00 99 1022.1
20260906110722 7 51 0.0 0.0 0.00 0.00 0.00 99 1022.1
20260906110212 7 51 0.0 0.0 0.00 0.00 0.00 99 1022.0
20260906105705 7 51 0.0 0.0 0.00 0.00 0.00 99 1021.9
20260906105202 7 51 0.0 0.0 0.00 0.00 0.00 99 1021.9
20260906104701 7 51 0.0 0.0 0.00 0.00 0.00 99 1021.9
20260906104200 7 51 0.0 0.0 0.00 0.00 0.00 99 1021.5
20260906103658 7 51 0.0 0.0 0.00 0.00 0.00 99 1021.9
20260906103153 7 51 0.0 0.0 0.00 0.00 0.00 99 1021.9
20260906102649 7 51 0.0 0.0 0.00 0.00 0.00 99 1021.9
20260906102143 7 51 0.0 0.0 0.00 0.00 0.00 99 1021.7
20260906101642 7 51 0.0 0.0 0.00 0.00 0.00 99 1021.9
20260906101137 7 51 0.0 0.0 0.00 0.00 0.00 99 1021.7
20260906100633 7 51 0.0 0.0 0.00 0.00 0.00 99 1022.0
20260906100127 7 51 0.0 0.0 0.00 0.00 0.00 99 1021.7
20260906095622 7 51 0.0 0.0 0.00 0.00 0.00 99 1021.6
20260906095118 7 51 0.0 0.0 0.00 0.00 0.00 99 1021.6
20260906094617 7 51 0.0 0.0 0.00 0.00 0.00 99 1021.7
20260906094113 7 51 0.0 0.0 0.00 0.00 0.00 99 1021.6
20260906093609 7 51 0.0 0.0 0.00 0.00 0.00 99 1021.7
20260906093103 7 51 0.0 0.0 0.00 0.00 0.00 99 1021.9
20260906092558 7 51 0.0 0.0 0.00 0.00 0.00 99 1021.6
20260906092053 7 51 0.0 0.0 0.00 0.00 0.00 99 1021.9
20260906091549 7 51 0.0 0.0 0.00 0.00 0.00 99 1021.6
20260906091045 7 51 0.0 0.0 0.00 0.00 0.00 99 1021.6
20260906090545 7 51 0.0 0.0 0.00 0.00 0.00 99 1021.6
20260906090040 7 51 0.0 0.0 0.00 0.00 0.00 99 1021.7
20260906085539 7 51 0.0 0.0 0.00 0.00 0.00 99 1021.9
20260906085038 7 51 0.0 0.0 0.00 0.00 0.00 99 1021.7
20260906084533 7 51 0.0 0.0 0.00 0.00 0.00 99 1021.9
20260906084032 7 51 0.0 0.0 0.00 0.00 0.00 99 1021.7
20260906083528 7 51 0.0 0.0 0.00 0.00 0.00 99 1021.7
20260906083027 7 51 0.0 0.0 0.00 0.00 0.00 99 1021.9
20260906082523 8 51 0.0 0.0 0.00 0.00 0.00 99 1022.0
20260906082019 8 51 0.0 0.0 0.00 0.00 0.00 99 1021.7
20260906081514 8 51 0.0 0.0 0.00 0.00 0.00 99 1021.4
20260906081009 8 51 0.0 0.0 0.00 0.00 0.00 99 1021.6
20260906080506 8 51 0.0 0.0 0.00 0.00 0.00 99 1021.6
20260906080002 8 51 0.0 0.0 0.00 0.00 0.00 99 1021.5
20260906075456 8 51 0.0 0.0 0.00 0.00 0.00 99 1021.6
20260906074951 8 51 0.0 0.0 0.00 0.00 0.00 99 1021.5
20260906074445 8 51 0.0 0.0 0.00 0.00 0.00 99 1021.6
20260906073943 8 51 0.0 0.0 0.00 0.00 0.00 99 1021.4
20260906073439 8 51 0.0 0.0 0.00 0.00 0.00 99 1021.6
20260906072935 8 51 0.0 0.0 0.00 0.00 0.00 99 1021.6
20260906072430 8 51 0.0 0.0 0.00 0.00 0.00 99 1021.3
20260906071926 8 51 0.0 0.0 0.00 0.00 0.00 99 1021.3
20260906071422 8 51 0.0 0.0 0.00 0.00 0.00 99 1021.4
20260906070917 8 51 0.0 0.0 0.00 0.00 0.00 99 1021.2
20260906070413 8 51 0.0 0.0 0.00 0.00 0.00 99 1021.2
20260906065903 8 51 0.0 0.0 0.00 0.00 0.00 99 1021.1
20260906065356 8 51 0.0 0.0 0.00 0.00 0.00 99 1021.3
20260906064852 8 51 0.0 0.0 0.00 0.00 0.00 99 1021.3
20260906064348 8 51 0.0 0.0 0.00 0.00 0.00 99 1021.1
20260906063843 8 51 0.0 0.0 0.00 0.00 0.00 99 1021.0
20260906063338 8 51 0.0 0.0 0.00 0.00 0.00 99 1021.1
20260906062833 8 51 0.0 0.0 0.00 0.00 0.00 99 1020.9
20260906062332 8 51 0.0 0.0 0.00 0.00 0.00 99 1021.1
20260906061828 9 51 0.0 0.0 0.00 0.00 0.00 99 1021.0
20260906061324 9 51 0.0 0.0 0.00 0.00 0.00 99 1021.2
20260906060819 8 51 0.0 0.0 0.00 0.00 0.00 99 1021.1
20260906060317 8 51 0.0 0.0 0.00 0.00 0.00 99 1021.0
20260906055812 9 51 0.0 0.0 0.00 0.00 0.00 99 1021.0
20260906055308 9 51 0.0 0.0 0.00 0.00 0.00 99 1021.0
20260906054803 9 51 0.0 0.0 0.00 0.00 0.00 99 1020.8
20260906054258 9 51 0.0 0.0 0.00 0.00 0.00 99 1020.8
20260906053754 9 51 0.0 0.0 0.00 0.00 0.00 99 1020.8
20260906053250 9 51 0.0 0.0 0.00 0.00 0.00 99 1020.7
20260906052745 10 51 0.0 0.0 0.00 0.00 0.00 99 1020.8
20260906052241 10 51 0.0 0.0 0.00 0.00 0.00 99 1020.9
20260906051738 10 51 0.0 0.0 0.00 0.00 0.00 99 1021.0
20260906051237 10 51 0.0 0.0 0.00 0.00 0.00 99 1020.9
20260906050733 10 51 0.0 0.0 0.00 0.00 0.00 99 1020.8
20260906050228 10 51 0.0 0.0 0.00 0.00 0.00 99 1020.8
20260906045726 10 51 0.0 0.0 0.00 0.00 0.00 99 1020.7
20260906045222 10 51 0.0 0.0 0.00 0.00 0.00 99 1020.7
20260906044717 10 51 0.0 0.0 0.00 0.00 0.00 99 1020.6
20260906044212 10 51 0.0 0.0 0.00 0.00 0.00 99 1020.5
20260906043709 10 51 0.0 0.0 0.00 0.00 0.00 99 1020.7
20260906043204 10 51 0.0 0.0 0.00 0.00 0.00 99 1020.6
20260906042703 10 51 0.0 0.0 0.00 0.00 0.00 99 1020.5
20260906042157 10 51 0.0 0.0 0.00 0.00 0.00 99 1020.5
20260906041653 10 51 0.0 0.0 0.00 0.00 0.00 99 1020.6
20260906041148 10 51 0.0 0.0 0.00 0.00 0.00 99 1020.6
20260906040643 11 51 0.0 0.0 0.00 0.00 0.00 99 1020.6
20260906040139 11 51 0.0 0.0 0.00 0.00 0.00 99 1020.6
20260906035634 11 51 0.0 0.0 0.00 0.00 0.00 99 1020.6
20260906035129 11 51 0.0 0.0 0.00 0.00 0.00 99 1020.5
20260906034630 11 51 0.0 0.0 0.00 0.00 0.00 99 1020.4
20260906034124 11 51 0.0 0.0 0.00 0.00 0.00 99 1020.5
20260906033620 11 51 0.0 0.0 0.00 0.00 0.00 99 1020.3
20260906033114 11 51 0.0 0.0 0.00 0.00 0.00 99 1020.4
20260906032612 11 51 0.0 0.0 0.00 0.00 0.00 98 1020.4
20260906032111 11 51 0.0 0.0 0.00 0.00 0.00 98 1020.2
20260906031606 11 51 0.0 0.0 0.00 0.00 0.00 98 1020.3
20260906031102 11 51 0.0 0.0 0.00 0.00 0.00 98 1020.3
20260906030601 12 51 0.0 0.0 0.00 0.00 0.00 98 1020.5
20260906030055 12 51 0.0 0.0 0.00 0.00 0.00 98 1020.5
20260906025550 12 51 0.0 0.0 0.00 0.00 0.00 98 1020.3
20260906025049 12 51 0.0 0.0 0.00 0.00 0.00 97 1020.5
20260906024543 12 51 0.0 0.0 0.00 0.00 0.00 97 1020.3
20260906024038 12 51 0.0 0.0 0.00 0.00 0.00 97 1020.3
20260906023534 12 51 0.0 0.0 0.00 0.00 0.00 97 1020.2
20260906023028 12 51 0.0 0.0 0.00 0.00 0.00 96 1020.2
20260906022523 13 51 0.0 0.0 0.00 0.00 0.00 96 1020.2
20260906022013 13 51 0.0 0.0 0.00 0.00 0.00 96 1020.2
20260906021508 13 51 0.0 0.0 0.00 0.00 0.00 96 1020.1
20260906021002 13 51 0.0 0.0 0.00 0.00 0.00 96 1020.0
20260906020456 13 51 0.0 0.0 0.00 0.00 0.00 95 1020.0
20260906015956 13 51 0.0 0.0 0.00 0.00 0.00 95 1020.2
20260906015455 13 51 0.0 0.0 0.00 0.00 0.00 95 1020.0
20260906014955 13 51 0.0 0.0 0.00 0.00 0.00 94 1019.8
20260906014455 14 51 0.0 0.0 0.00 0.00 0.00 94 1019.9
20260906013945 14 51 0.0 0.0 0.00 0.00 0.00 94 1019.7
20260906013440 14 51 0.0 0.0 0.00 0.00 0.00 94 1020.0
20260906012936 14 51 0.0 0.0 0.00 0.00 0.00 94 1019.8
20260906012431 15 51 0.0 0.0 0.00 0.00 0.00 93 1019.9
20260906011930 15 51 0.0 0.0 0.00 0.00 0.00 92 1019.9
20260906011426 15 51 0.0 0.0 0.00 0.00 0.00 91 1019.7
20260906010921 15 51 0.0 0.0 0.00 0.00 0.00 90 1019.8
20260906010416 15 51 0.0 0.0 0.00 0.00 0.00 89 1019.7
20260906005912 16 51 0.0 0.0 0.00 0.00 0.00 88 1019.7
20260906005412 16 51 0.0 0.0 0.00 0.00 0.00 88 1019.8
20260906004904 16 51 0.0 0.0 0.00 0.00 0.00 87 1019.7
20260906004359 16 51 0.0 0.0 0.00 0.00 0.00 86 1019.8
20260906003854 16 51 0.0 0.0 0.00 0.00 0.00 85 1019.8
20260906003349 17 51 0.0 0.0 0.00 0.00 0.00 84 1019.7
20260906002846 17 51 0.0 0.0 0.00 0.00 0.00 82 1019.5
20260906002344 17 51 0.0 0.0 0.00 0.00 0.00 81 1019.6
20260906001840 18 51 0.0 0.0 0.00 0.00 0.00 79 1019.5
20260906001335 18 51 0.0 0.0 0.00 0.00 0.00 77 1019.3
20260906000830 18 51 0.0 0.0 0.00 0.00 0.00 77 1019.6
20260906000326 19 51 0.0 0.0 0.00 0.00 0.00 74 1019.3
20260905235825 19 51 0.0 0.0 0.00 0.00 0.00 76 1019.6
20260905235320 20 51 0.0 0.0 0.00 0.00 0.00 75 1019.3
20260905234816 20 51 0.0 0.0 0.00 0.00 0.00 69 1019.1
20260905234310 20 50 0.0 0.0 0.00 0.00 0.00 69 1019.5
20260905233800 21 50 0.0 0.0 0.00 0.00 0.00 68 1019.3
20260905233259 21 148 0.0 0.0 0.00 0.00 0.00 68 1019.3
20260905232759 21 148 0.0 0.0 0.00 0.00 0.00 67 1019.3
20260905232255 21 148 0.0 0.0 0.00 0.00 0.00 65 1019.2
20260905231750 21 148 0.0 0.0 0.00 0.00 0.00 65 1019.6
20260905231246 21 148 0.0 1.6 0.00 0.00 0.00 65 1019.2
20260905230742 22 126 0.0 0.0 0.00 0.00 0.00 64 1019.1
20260905230239 22 79 1.6 3.2 0.00 0.00 0.00 63 1019.0
20260905225733 22 127 0.0 1.6 0.00 0.00 0.00 63 1019.1
20260905225229 22 165 1.6 1.6 0.00 0.00 0.00 62 1019.1
20260905224727 22 99 0.0 0.0 0.00 0.00 0.00 62 1019.1
20260905224223 22 100 1.6 1.6 0.00 0.00 0.00 61 1019.0
20260905223719 23 161 0.0 0.0 0.00 0.00 0.00 62 1019.1
20260905223216 23 139 1.6 1.6 0.00 0.00 0.00 60 1018.9
20260905222712 23 173 0.0 1.6 0.00 0.00 0.00 60 1018.9
20260905222210 23 105 1.6 1.6 0.00 0.00 0.00 61 1019.0
20260905221706 23 43 0.0 0.0 0.00 0.00 0.00 60 1018.9
20260905221203 23 166 0.0 0.0 0.00 0.00 0.00 60 1019.1
20260905220659 23 115 1.6 1.6 0.00 0.00 0.00 60 1019.0
20260905220155 23 106 0.0 1.6 0.00 0.00 0.00 60 1019.0
20260905215649 24 112 3.2 3.2 0.00 0.00 0.00 60 1019.0
20260905215144 24 38 0.0 0.0 0.00 0.00 0.00 60 1019.0
20260905214640 24 17 0.0 0.0 0.00 0.00 0.00 60 1019.0
20260905214135 23 47 0.0 0.0 0.00 0.00 0.00 58 1019.0
20260905213631 23 46 0.0 0.0 0.00 0.00 0.00 58 1019.0
20260905213126 24 45 0.0 0.0 0.00 0.00 0.00 59 1019.0
20260905212621 24 120 0.0 0.0 0.00 0.00 0.00 58 1019.0
20260905212121 24 121 0.0 0.0 0.00 0.00 0.00 56 1018.8
20260905211616 24 120 0.0 1.6 0.00 0.00 0.00 56 1018.9
20260905211111 24 170 0.0 1.6 0.00 0.00 0.00 56 1018.8
20260905210607 24 171 1.6 1.6 0.00 0.00 0.00 58 1019.0
20260905205601 24 15 1.6 1.6 0.00 0.00 0.00 58 1019.0
20260905205100 25 8 0.0 1.6 0.00 0.00 0.00 57 1018.7
20260905204555 25 277 0.0 0.0 0.00 0.00 0.00 58 1018.7
20260905204050 24 288 0.0 0.0 0.00 0.00 0.00 59 1018.8
20260905203549 24 331 3.2 3.2 0.00 0.00 0.00 57 1018.8
20260905203045 24 353 4.8 6.4 0.00 0.00 0.00 57 1018.6
20260905202540 24 341 1.6 1.6 0.00 0.00 0.00 56 1018.7
20260905202036 24 239 0.0 0.0 0.00 0.00 0.00 58 1018.6
20260905201532 24 332 1.6 3.2 0.00 0.00 0.00 57 1018.8
20260905201031 24 117 1.6 1.6 0.00 0.00 0.00 56 1018.8
20260905200527 24 3 0.0 0.0 0.00 0.00 0.00 59 1018.9
20260905200026 24 321 0.0 1.6 0.00 0.00 0.00 56 1019.0
20260905195521 24 332 3.2 3.2 0.00 0.00 0.00 60 1019.0
20260905195016 23 280 0.0 0.0 0.00 0.00 0.00 60 1019.0
20260905194515 23 336 0.0 1.6 0.00 0.00 0.00 62 1019.1
20260905194009 22 352 0.0 1.6 0.00 0.00 0.00 65 1019.1
20260905193504 23 355 4.8 9.7 0.00 0.00 0.00 64 1019.1
20260905193000 23 24 1.6 3.2 0.00 0.00 0.00 63 1019.1
20260905192455 23 4 3.2 3.2 0.00 0.00 0.00 61 1019.2
20260905191951 23 128 0.0 0.0 0.00 0.00 0.00 60 1019.6